Temp
3 4 4 4 4 4 4 4 5 5 5 5 5 5 6 6 6 6 6 6 6 6 6 6 7 7 7 7 7 7 8 8 8 8 8 9 9 9 10 10 10 10 10 10 10 10 10 10 10 11 11 11 11 11 12 12 12 12 12 12 12 12 12 12 12 13 13 13 13 14 14 14 14 15 15 15 14 14 14 14 15 15 15 15 15 15
3 3 3 3 3 4 4 4 5 5 5 5 5 5 5 5 5 5 5 5 5 5 6 6 6 6 7 7 7 7 7 7 7 7 8 8 8 9 9 9 9 10 10 10 10 10 10 10 10 10 10 10 11 11 11 11 12 12 12 12 12 12 12 12 12 12 13 13 13 13 14 14 14 14 14 14 14 14 13 14 14 15 15 15 15 15
3 3 3 3 3 4 4 4 4 4 4 4 4 4 4 4 4 5 5 5 5 5 5 6 6 6 6 6 6 7 7 7 7 7 7 8 8 8 8 9 9 9 9 9 9 10 10 10 10 10 10 10 10 10 11 11 11 12 12 12 12 12 12 12 12 12 13 13 13 13 13 14 14 14 14 14 14 14 13 13 13 14 14 15 15 15
2 3 3 3 3 4 4 4 4 4 4 4 4 4 4 4 4 4 4 5 5 5 5 5 5 6 6 6 6 6 7 7 7 7 7 7 7 8 8 8 8 8 9 9 9 9 9 9 10 10 10 10 10 10 10 10 11 11 11 12 12 12 12 12 12 12 12 13 13 13 13 14 14 14 14 14 14 14 13 13 13 13 14 14 15 15
2 2 3 3 3 3 3 3 3 3 3 3 3 3 4 4 4 4 4 4 5 5 5 5 5 6 6 6 6 6 6 6 6 7 7 7 7 7 7 7 8 8 8 8 9 9 9 9 9 9 10 10 10 10 10 10 10 11 11 11 11 12 12 12 12 12 12 12 13 13 13 13 13 13 14 14 14 14 13 13 13 13 13 14 14 14
2 2 2 2 2 3 3 3 3 3 3 3 3 3 4 4 4 4 4 4 4 5 5 5 5 5 5 6 6 6 6 6 6 6 6 6 6 7 7 7 7 7 8 8 8 8 9 9 9 9 9 10 10 10 10 10 10 10 10 11 11 11 12 12 12 12 12 12 12 13 13 13 13 13 13 14 14 14 14 13 13 13 13 13 13 14
1 1 1 2 2 2 2 2 2 2 3 3 3 3 4 4 4 4 4 4 4 4 4 5 5 5 5 5 5 5 6 6 6 6 6 6 6 7 7 7 7 7 8 8 8 8 9 9 9 9 9 10 10 10 10 10 10 10 10 10 10 11 11 11 12 12 12 12 12 12 12 13 13 13 13 13 13 14 14 14 13 13 13 13 13 13
1 1 1 1 1 1 1 2 2 2 3 3 3 3 4 4 4 4 4 4 4 4 4 4 4 5 5 5 5 6 6 6 6 6 6 7 7 7 7 7 8 8 8 8 8 9 9 9 9 9 9 10 10 10 10 10 10 10 10 10 10 10 11 11 11 12 12 12 12 12 12 12 12 13 13 13 13 13 13 14 13 13 13 13 13 13
1 1 1 1 1 1 1 2 2 2 3 3 3 3 3 4 4 4 4 4 4 4 4 5 5 5 5 5 6 6 6 6 6 6 6 7 7 7 7 7 7 8 8 8 8 8 8 9 9 9 9 9 10 10 10 10 10 10 10 10 10 10 10 11 11 11 11 12 12 12 12 12 12 12 12 13 13 13 13 13 13 13 13 13 13 13
0 0 1 1 1 1 2 2 2 3 3 3 3 3 3 3 4 4 4 4 4 5 5 5 5 5 5 5 5 5 6 6 6 6 6 6 6 7 7 7 7 7 7 7 8 8 8 8 9 9 9 9 9 10 10 10 10 10 10 10 10 10 10 10 10 11 11 11 12 12 12 12 12 12 12 12 13 13 13 13 13 13 13 13 13 13
0 1 1 1 1 2 2 2 2 2 2 3 3 3 3 3 4 4 4 4 4 5 5 5 5 5 5 5 5 5 5 5 5 5 6 6 6 6 6 6 6 7 7 7 7 8 8 8 8 9 9 9 9 9 10 10 10 10 10 10 10 10 10 10 10 10 11 11 11 12 12 12 12 12 12 12 12 13 13 13 13 13 13 13 13 13
1 1 1 1 1 2 2 2 2 2 3 3 3 3 4 4 4 4 4 4 4 4 4 4 4 4 4 4 4 4 5 5 5 5 5 5 5 6 6 6 6 6 7 7 7 7 8 8 8 8 9 9 9 9 9 10 10 10 10 10 10 10 10 10 10 10 11 11 11 11 11 12 12 12 12 12 12 12 13 13 13 13 13 13 13 13
1 1 1 1 1 2 2 2 3 3 3 3 3 4 4 4 3 3 3 3 3 3 3 3 3 3 3 3 4 4 4 4 4 5 5 5 5 5 6 6 6 6 7 7 7 7 8 8 8 8 8 9 9 9 9 9 9 10 10 10 10 10 10 10 10 10 10 11 11 11 11 11 11 11 12 12 12 12 12 12 13 13 13 13 13 13
1 1 1 1 1 2 2 2 2 3 3 3 3 3 3 3 3 3 3 3 3 3 3 3 3 3 3 3 3 3 4 4 4 4 5 5 5 5 5 6 6 6 6 7 7 7 7 8 8 8 8 9 9 9 9 9 9 9 9 10 10 10 10 10 10 10 10 10 11 11 11 11 11 11 11 12 12 12 12 12 12 13 13 13 13 13
0 1 1 1 1 2 2 2 2 2 3 3 3 3 2 2 2 2 2 2 2 2 2 2 2 2 3 3 3 3 3 3 4 4 4 5 5 5 5 6 6 6 6 7 7 7 7 8 8 8 8 8 9 9 9 9 9 9 9 10 10 10 10 10 10 10 10 10 10 11 11 11 11 11 11 11 12 12 12 12 12 12 12 13 13 13
0 1 1 1 1 1 1 2 2 2 2 2 2 2 2 2 2 2 2 2 2 2 2 2 2 2 2 3 3 3 3 3 4 4 4 5 5 5 5 6 6 6 6 7 7 7 7 7 7 7 7 7 7 8 8 8 9 9 9 9 10 10 10 10 10 10 10 10 10 10 11 11 11 11 11 11 11 12 12 12 12 12 12 12 13 13
0 0 1 1 1 1 1 1 1 1 2 2 1 1 1 1 1 1 1 1 1 1 1 1 1 2 2 3 3 3 3 3 3 4 4 4 4 5 5 5 5 6 6 6 6 6 6 6 6 6 6 6 6 6 7 7 7 8 8 9 9 9 10 10 10 10 10 10 10 10 11 11 11 11 11 11 11 11 12 12 12 12 12 12 12 12
0 0 0 1 1 1 1 1 1 1 1 1 1 1 1 1 1 1 1 1 1 1 1 1 1 1 2 2 3 3 3 3 3 3 3 3 4 4 4 4 5 5 5 5 6 6 6 6 6 6 6 6 6 6 6 6 6 6 7 7 8 9 9 10 10 10 10 10 10 10 11 11 11 11 11 11 11 11 11 11 11 12 12 12 12 12
-0 -0 0 0 1 1 1 1 1 1 1 1 1 1 1 0 0 0 0 0 0 0 0 1 1 1 1 2 2 2 2 2 2 2 2 3 3 3 3 4 4 4 5 5 5 5 5 5 5 6 6 6 6 6 6 6 6 6 6 6 7 7 8 9 9 10 10 10 11 11 11 11 11 11 11 11 11 11 11 11 11 11 12 12 12 12
-0 -0 0 0 0 0 0 0 0 1 1 0 0 -0 -0 -0 -0 -0 -0 -0 -0 0 0 0 0 1 1 1 1 1 2 2 2 2 2 2 2 3 3 3 3 4 4 4 4 5 5 5 5 5 5 6 6 6 6 6 6 6 6 6 7 7 7 8 8 9 9 10 10 11 11 11 11 11 11 11 11 11 11 11 11 11 11 12 12 12
-1 -0 -0 -0 -0 -0 -0 -0 -0 -0 -0 -0 -1 -1 -1 -1 -0 -0 -0 -0 -0 -0 -0 0 0 1 1 1 1 1 1 1 1 1 1 2 2 2 3 3 3 3 3 4 4 4 5 5 5 5 5 5 5 6 6 6 6 6 6 7 7 7 7 7 7 7 8 9 10 10 11 11 11 11 11 11 11 11 11 11 11 11 11 11 12 12
-1 -1 -1 -1 -1 -1 -1 -1 -1 -1 -1 -1 -1 -1 -1 -1 -1 -1 -0 -0 -0 -0 0 0 0 0 0 1 1 1 1 1 1 1 1 1 2 2 2 2 3 3 3 3 4 4 4 4 5 5 5 5 5 5 5 6 6 6 6 6 7 7 7 7 7 7 7 8 9 10 10 10 10 10 10 10 11 11 11 11 11 11 11 11 11 12
-2 -1 -1 -1 -1 -1 -1 -1 -1 -1 -1 -1 -1 -1 -1 -1 -1 -1 -1 -1 -1 -0 -0 -0 -0 0 0 0 0 0 0 0 0 0 1 1 1 2 2 2 2 3 3 3 3 4 4 4 4 5 5 5 5 5 5 5 6 6 6 6 7 7 7 7 7 7 7 8 8 9 10 10 10 10 10 10 10 10 11 11 11 11 11 11 11 12
-2 -2 -2 -2 -2 -2 -2 -2 -2 -2 -2 -2 -2 -2 -2 -2 -1 -1 -1 -1 -1 -1 -1 -1 -0 -0 -0 0 0 0 0 0 0 0 0 1 1 2 2 2 2 2 3 3 3 3 4 4 4 5 5 5 5 5 5 5 5 6 6 6 6 7 7 7 8 8 8 8 8 9 10 10 10 10 10 10 10 10 10 11 11 11 11 11 11 11
-2 -2 -2 -2 -2 -2 -2 -2 -2 -2 -2 -2 -2 -2 -2 -1 -1 -1 -1 -1 -1 -1 -1 -1 -0 0 0 0 0 0 1 1 1 1 0 1 1 1 2 2 2 2 2 3 3 3 4 4 4 4 5 5 5 5 5 5 5 6 6 6 6 7 7 7 8 8 8 8 8 9 9 10 10 10 10 10 10 10 10 10 11 11 11 11 11 11
-2 -2 -2 -2 -2 -2 -2 -2 -2 -2 -2 -2 -1 -1 -1 -1 -1 -1 -1 -1 -1 -1 -1 -1 -0 0 1 1 1 1 1 1 1 1 1 1 1 1 2 2 2 2 2 3 3 3 3 4 4 4 5 5 5 5 5 5 6 6 6 6 6 7 7 7 8 8 8 8 8 9 9 9 10 10 10 10 10 10 10 10 10 11 11 11 11 11
-2 -2 -2 -2 -2 -2 -2 -2 -2 -2 -1 -1 -1 -1 -1 -1 -1 -1 -1 -1 -1 -1 -1 -1 -0 0 1 1 1 1 1 1 1 1 1 1 1 1 2 2 2 2 3 3 3 3 3 4 4 4 4 5 5 5 5 5 6 6 6 6 6 7 7 7 7 8 8 8 8 9 9 9 9 10 10 10 10 10 11 10 10 11 11 11 11 11
-2 -2 -2 -2 -2 -2 -2 -2 -2 -2 -2 -1 -1 -1 -2 -2 -2 -2 -2 -2 -1 -2 -1 -1 -1 -0 0 1 1 1 1 1 1 1 1 1 1 1 2 2 2 2 3 3 3 3 3 4 4 4 4 5 5 5 5 5 6 6 6 6 6 6 7 7 7 8 8 8 8 8 9 9 9 9 10 10 10 10 10 10 10 11 11 11 11 11
-2 -2 -2 -2 -2 -2 -2 -2 -2 -2 -2 -2 -2 -2 -2 -2 -2 -2 -2 -2 -2 -2 -2 -1 -1 -1 -0 -0 0 0 1 1 1 1 1 1 1 1 2 2 2 2 2 3 3 3 3 4 4 4 4 5 5 5 5 5 6 6 6 6 6 6 7 7 7 8 8 8 8 9 9 9 9 9 9 10 10 10 10 10 10 11 11 11 11 11
-2 -2 -2 -2 -2 -2 -2 -2 -2 -2 -2 -2 -2 -2 -2 -3 -3 -3 -3 -3 -3 -2 -2 -2 -1 -1 -1 -1 -0 0 0 1 1 1 1 1 1 1 2 2 2 2 2 2 2 3 3 4 4 4 4 5 5 5 5 5 6 6 6 6 7 7 7 7 7 8 8 8 8 9 9 9 9 9 9 9 10 10 10 10 11 11 11 11 11 11
-2 -2 -2 -2 -2 -2 -2 -2 -2 -2 -2 -2 -2 -2 -3 -3 -3 -3 -3 -3 -3 -3 -2 -2 -2 -1 -1 -1 -0 0 1 1 1 1 1 1 1 1 2 2 2 2 2 2 2 3 3 4 5 5 5 5 5 5 5 6 6 6 6 7 7 7 7 8 8 8 8 8 9 9 9 9 9 9 9 9 9 10 10 10 10 11 11 11 11 11
-2 -2 -2 -2 -2 -2 -2 -2 -2 -3 -3 -3 -3 -3 -3 -3 -3 -3 -3 -3 -3 -3 -3 -2 -2 -2 -1 -1 -1 -0 0 1 1 1 1 1 1 1 2 2 2 2 2 2 2 2 3 4 5 5 5 5 5 5 5 6 6 6 6 7 7 7 8 8 8 8 8 8 9 9 9 9 9 9 9 9 9 10 10 10 10 10 11 11 11 11
-3 -3 -3 -3 -3 -3 -3 -3 -3 -3 -3 -3 -3 -3 -3 -3 -3 -3 -3 -3 -3 -3 -3 -3 -2 -2 -2 -1 -1 -1 -0 0 0 0 1 0 1 1 1 2 2 2 3 3 3 3 3 4 4 5 5 5 5 5 5 6 6 6 6 6 7 7 7 8 8 8 8 8 9 9 9 9 9 9 9 9 9 10 10 10 10 10 10 11 11 11
-3 -3 -3 -3 -3 -3 -3 -3 -3 -3 -3 -3 -2 -2 -2 -2 -2 -3 -3 -3 -3 -3 -3 -3 -3 -2 -2 -2 -1 -1 -1 -0 -0 0 0 0 0 0 1 1 2 2 2 3 3 3 3 4 4 4 4 4 5 5 5 5 5 6 6 6 6 7 7 7 8 8 8 8 9 9 9 9 9 9 9 9 9 9 10 10 10 10 10 11 11 11
-3 -3 -3 -3 -3 -3 -3 -3 -3 -3 -3 -2 -2 -2 -2 -2 -2 -2 -2 -3 -3 -3 -3 -3 -3 -3 -2 -2 -1 -1 -1 -0 -0 -0 -0 -0 -0 -0 0 1 1 1 2 2 2 3 3 4 4 4 4 4 4 5 5 5 5 6 6 6 6 7 7 7 8 8 8 8 9 9 9 9 9 9 9 9 9 9 10 10 10 10 11 11 11 11
-4 -3 -3 -3 -3 -3 -3 -3 -3 -3 -3 -2 -2 -2 -2 -2 -2 -2 -2 -3 -3 -3 -3 -3 -3 -3 -3 -3 -2 -2 -1 -1 -1 -1 -1 -1 -1 -1 -0 0 0 1 1 1 2 2 3 3 4 4 4 4 4 5 5 5 5 5 6 6 6 7 7 7 8 8 8 8 9 9 9 9 9 9 9 9 9 9 10 10 10 10 11 11 11 11
-3 -3 -3 -3 -3 -3 -3 -3 -3 -3 -3 -3 -2 -2 -2 -2 -2 -3 -3 -3 -3 -3 -3 -3 -3 -3 -3 -3 -3 -3 -2 -2 -2 -2 -2 -2 -1 -1 -1 -0 0 0 1 1 1 2 2 3 3 4 4 4 4 5 5 5 5 5 6 6 6 7 7 7 7 8 8 8 8 9 9 9 9 9 9 9 10 10 10 10 10 10 11 11 11 11
-3 -3 -3 -3 -3 -3 -3 -3 -3 -3 -3 -3 -3 -3 -3 -3 -3 -3 -3 -3 -3 -3 -3 -3 -3 -3 -3 -3 -3 -3 -3 -3 -3 -2 -2 -2 -2 -1 -1 -1 -0 -0 0 0 1 1 1 2 2 3 3 4 4 5 5 5 5 5 6 6 6 6 7 7 7 7 8 8 8 9 9 9 9 9 9 10 10 10 10 10 10 10 10 11 11 11
-3 -3 -3 -3 -3 -3 -3 -3 -3 -3 -3 -3 -3 -3 -3 -3 -3 -3 -3 -3 -3 -3 -3 -3 -3 -3 -3 -3 -3 -3 -3 -3 -3 -3 -3 -2 -2 -2 -2 -1 -1 -0 -0 0 0 1 1 1 2 2 3 4 4 5 5 5 5 5 5 6 6 6 6 7 7 7 8 8 8 8 9 9 9 9 10 10 10 10 10 10 10 10 10 10 11 11
-3 -3 -3 -3 -3 -3 -3 -3 -3 -3 -3 -3 -3 -3 -3 -3 -3 -3 -3 -3 -3 -3 -3 -3 -3 -3 -3 -3 -3 -3 -3 -3 -3 -3 -3 -3 -2 -2 -2 -2 -1 -1 -0 -0 0 1 1 1 1 2 2 3 4 4 5 5 5 5 5 5 6 6 6 6 7 7 7 8 8 8 9 9 9 9 10 10 10 10 10 10 10 10 10 10 10 10
-3 -3 -3 -3 -3 -3 -3 -3 -3 -3 -3 -3 -3 -3 -3 -3 -3 -3 -3 -3 -3 -3 -3 -3 -3 -3 -3 -3 -3 -3 -3 -3 -3 -3 -3 -3 -2 -2 -2 -2 -1 -1 -1 -0 -0 0 1 1 1 1 2 2 3 3 4 4 5 5 5 5 5 6 6 6 6 7 7 7 8 8 9 9 9 9 9 10 10 10 10 10 10 10 10 10 10 10
-3 -3 -3 -3 -3 -3 -3 -3 -3 -3 -3 -3 -3 -3 -3 -3 -3 -3 -3 -3 -3 -2 -2 -2 -2 -2 -2 -2 -2 -2 -2 -2 -2 -2 -2 -2 -2 -2 -2 -2 -2 -1 -1 -1 -0 0 0 1 1 1 1 2 2 3 3 4 4 5 5 5 5 5 5 6 6 6 7 7 8 8 9 8 8 9 9 9 10 10 10 10 10 10 10 10 10 10
-4 -4 -4 -3 -3 -3 -3 -3 -3 -3 -3 -3 -3 -3 -3 -3 -3 -3 -3 -3 -2 -2 -2 -2 -2 -2 -2 -2 -2 -1 -1 -1 -2 -2 -2 -2 -2 -2 -2 -2 -2 -1 -1 -1 -0 -0 0 0 1 1 1 2 2 2 3 4 4 4 5 5 5 5 5 5 6 6 7 7 8 8 9 8 8 8 9 9 9 10 10 10 10 10 10 10 10 10
-4 -4 -4 -4 -4 -3 -3 -3 -3 -3 -3 -3 -3 -3 -3 -3 -3 -3 -3 -3 -2 -2 -2 -2 -2 -2 -2 -2 -1 -1 -1 -1 -1 -1 -1 -1 -1 -1 -2 -2 -2 -2 -1 -1 -1 -0 0 0 1 1 1 1 2 2 3 3 4 4 4 5 5 5 5 5 6 6 7 7 8 8 8 8 8 8 9 9 9 10 10 10 10 10 10 10 10 10
-4 -4 -4 -3 -3 -3 -3 -3 -3 -3 -3 -3 -3 -3 -3 -3 -3 -3 -3 -3 -3 -2 -2 -2 -2 -2 -2 -1 -1 -1 -1 -1 -1 -1 -1 -1 -1 -1 -1 -1 -1 -1 -1 -1 -1 -0 -0 0 0 1 1 1 2 2 2 3 3 4 4 4 5 5 5 5 5 6 6 7 8 8 8 8 8 8 9 9 9 9 9 9 9 10 10 10 10 10
-4 -4 -4 -3 -3 -3 -3 -3 -3 -3 -3 -3 -3 -3 -3 -3 -3 -3 -3 -3 -3 -2 -2 -2 -2 -2 -2 -1 -1 -1 -1 -0 -0 -0 -0 -0 -1 -1 -1 -1 -1 -1 -1 -1 -1 -0 -0 0 0 1 1 1 1 2 2 3 3 4 4 4 4 5 5 5 5 6 6 7 8 8 9 9 9 9 9 9 9 9 9 9 9 9 9 10 10 10
-4 -4 -4 -4 -4 -3 -3 -3 -3 -3 -3 -3 -3 -3 -3 -3 -3 -3 -3 -3 -3 -3 -2 -2 -2 -2 -2 -1 -1 -1 -1 -1 -0 -0 -0 -0 -0 -0 -0 -1 -1 -1 -1 -1 -1 -0 -0 -0 0 0 1 1 1 2 2 3 3 4 4 4 4 4 4 5 5 5 6 7 7 8 9 9 9 9 9 9 9 9 9 9 9 9 9 9 10 10
-4 -4 -4 -4 -4 -3 -3 -3 -3 -3 -3 -3 -3 -3 -3 -3 -3 -3 -3 -3 -3 -3 -3 -3 -2 -2 -2 -2 -1 -1 -1 -1 -1 -0 -0 -0 -0 -0 -0 -0 -0 -0 -0 -0 -0 -0 -0 -0 -0 0 0 1 1 2 2 3 3 3 4 4 4 4 4 5 5 5 6 6 7 8 9 9 9 9 9 9 9 9 9 9 9 9 9 9 9 10
-4 -4 -4 -4 -4 -4 -3 -3 -3 -3 -3 -3 -3 -3 -3 -3 -3 -3 -3 -3 -3 -3 -3 -3 -2 -2 -2 -2 -1 -1 -1 -1 -1 -1 -1 -0 -0 -0 -0 -0 -0 -0 -0 -0 -0 -0 -0 -0 -0 0 0 0 1 1 2 2 3 3 3 4 4 4 4 5 5 5 6 7 7 8 8 9 9 9 9 9 9 9 9 9 9 9 9 9 9 10
-4 -4 -4 -4 -4 -3 -3 -3 -3 -3 -3 -3 -3 -3 -3 -3 -3 -3 -3 -3 -3 -3 -3 -3 -3 -2 -2 -2 -2 -1 -1 -1 -1 -1 -1 -1 -0 -0 -0 -0 0 0 0 0 0 0 0 0 0 0 0 0 1 1 1 2 2 3 3 3 4 4 4 5 5 6 6 7 7 8 8 9 9 9 9 9 9 9 9 9 9 9 9 9 9 10
-4 -4 -4 -4 -4 -3 -3 -3 -3 -3 -3 -3 -3 -3 -3 -3 -3 -3 -3 -3 -3 -3 -3 -3 -3 -2 -2 -2 -2 -2 -2 -1 -1 -1 -1 -1 -1 -0 -0 -0 0 1 1 1 1 1 1 1 1 1 1 1 1 1 1 1 2 2 3 3 3 4 4 5 5 6 7 7 8 8 8 8 8 9 9 9 9 9 9 9 9 9 9 9 9 9
Height
754 753 751 751 749 748 745 744 744 742 739 738 737 736 734 733 731 730 728 727 726 724 722 720 718 716 714 713 711 710 709 708 708 706 705 704 703 703 702 701 700 699 698 697 697 696 695 695 695 694 694 694 694 694 695 695 695 695 695 695 695 695 695 694 694 694 694 695 696 697 697 698 698 699 700 702 704 707 709 711 712 713 715 718 720 722
753 752 750 749 748 746 744 743 742 741 739 737 735 734 733 731 730 728 727 725 724 723 721 718 716 714 712 711 709 708 707 706 705 703 703 701 700 699 699 698 697 696 695 694 693 693 692 692 691 691 691 691 691 691 691 691 691 691 691 691 692 692 692 692 691 691 691 691 692 693 694 694 695 696 697 699 702 704 707 709 710 711 712 714 716 718
753 751 749 748 747 745 743 741 741 740 738 736 734 733 732 730 728 726 724 723 721 720 718 717 715 713 710 708 707 706 704 703 702 701 700 699 698 697 696 695 694 693 692 691 690 689 689 688 688 688 687 687 687 687 687 687 687 687 687 687 688 688 688 688 688 688 688 688 689 689 690 691 692 693 694 696 699 702 705 707 709 710 711 711 712 714
753 750 748 746 745 744 742 741 739 738 737 735 733 731 730 728 726 724 723 721 719 718 716 715 713 711 709 707 705 703 702 701 700 699 698 696 695 694 693 692 691 690 689 688 687 686 685 685 684 684 683 683 683 683 683 683 683 683 683 683 683 684 684 685 685 685 686 686 686 687 687 688 689 690 691 693 696 699 702 704 706 708 709 709 709 711
752 750 748 746 744 742 741 740 739 737 735 733 732 730 728 727 724 723 721 719 718 716 714 713 711 709 707 705 703 701 700 699 697 696 695 693 692 691 690 688 688 686 686 685 684 683 682 681 681 680 680 679 679 679 679 679 679 679 679 679 679 680 680 681 681 682 683 683 683 684 684 685 686 687 688 690 692 695 698 701 703 704 706 707 708 708
750 749 748 746 744 742 740 739 738 736 734 731 729 728 726 725 723 721 719 717 715 714 712 710 709 707 705 703 701 699 697 696 694 693 692 690 689 688 686 685 684 683 682 681 680 679 678 678 677 677 676 676 675 675 675 675 675 675 675 675 675 676 676 677 677 678 679 679 680 681 681 682 683 684 685 686 688 691 693 696 698 700 702 704 706 706
749 748 747 745 743 741 740 738 737 735 733 730 728 726 724 723 721 719 717 716 714 712 710 708 706 704 703 701 698 697 695 693 692 690 688 687 686 684 683 682 681 679 678 678 677 676 675 674 673 673 672 672 671 671 671 671 671 671 671 671 671 672 672 673 673 674 675 676 676 677 678 679 679 681 682 683 684 686 688 691 693 696 698 700 702 704
748 746 746 745 743 740 738 737 735 734 732 730 727 724 722 720 719 717 715 714 712 710 708 705 703 702 700 698 697 695 693 691 689 688 686 684 683 682 680 679 678 677 676 675 673 673 672 671 670 669 668 668 667 667 667 667 667 667 667 667 668 668 668 669 669 670 671 672 673 673 674 675 676 677 678 679 681 682 684 686 689 691 693 696 698 700
748 745 744 743 742 739 736 734 733 732 731 729 727 724 721 718 716 714 713 711 710 709 707 704 701 699 697 696 695 693 691 689 688 686 684 682 681 679 678 676 675 674 673 672 670 669 668 668 667 666 665 664 663 663 663 663 663 663 663 663 663 664 664 665 665 666 667 668 668 669 670 671 673 674 675 676 678 679 681 683 685 687 689 691 694 696
747 745 743 741 740 739 736 732 730 729 730 728 726 724 722 718 715 712 710 708 707 707 705 703 700 697 695 693 693 692 689 687 685 684 682 680 678 677 675 674 673 671 669 668 667 666 665 664 663 662 661 661 660 659 659 659 659 659 659 659 659 660 660 661 661 662 663 663 664 665 666 668 669 670 672 673 674 676 678 679 681 683 684 687 689 692
745 744 742 739 738 736 735 732 729 728 727 726 724 722 720 718 716 712 708 706 705 704 703 702 700 698 694 692 690 689 688 685 683 681 680 678 676 675 673 672 670 668 667 665 664 663 662 661 660 659 658 657 656 656 655 655 655 655 655 655 655 656 656 657 657 658 658 659 660 661 662 663 665 666 668 669 671 672 673 675 677 678 680 683 685 688
744 742 740 738 736 734 732 730 728 727 726 724 721 719 717 716 715 713 710 706 704 703 701 700 698 697 695 692 689 688 686 684 681 679 677 675 674 672 671 668 667 665 664 662 661 659 658 657 656 655 654 653 653 652 652 652 651 651 651 651 651 652 652 653 653 654 654 655 656 657 658 659 661 662 663 665 666 668 669 671 673 674 676 678 681 683
743 742 739 737 735 733 731 728 727 725 724 723 720 718 715 714 714 713 710 707 704 703 701 698 696 694 693 692 689 687 685 682 680 678 676 673 672 670 669 666 664 663 661 659 657 656 655 654 653 652 651 650 649 649 648 648 648 647 647 647 647 648 648 648 649 649 650 651 652 653 654 655 657 658 659 661 662 663 665 667 668 669 671 674 677 679
742 740 738 736 733 731 730 728 726 724 722 721 719 717 715 713 713 712 709 706 703 702 701 698 694 692 690 689 688 686 684 681 678 676 673 671 670 668 667 664 662 660 659 657 654 653 652 651 650 648 648 647 646 645 645 644 644 643 643 643 643 643 644 644 645 645 646 647 648 649 650 651 653 654 655 657 658 659 661 662 663 665 667 670 672 675
741 739 737 734 732 730 728 727 725 723 721 719 718 716 714 713 711 710 708 704 702 701 700 697 693 690 688 687 686 685 683 680 677 674 671 668 667 667 665 663 659 658 657 654 652 650 649 649 648 646 645 644 643 642 642 641 641 640 639 639 639 639 640 640 640 641 642 643 643 644 646 647 648 650 651 652 654 655 656 658 660 662 663 665 668 670
740 738 736 733 730 728 727 726 724 721 719 718 717 715 714 711 709 708 707 704 701 699 698 695 691 687 683 683 683 683 681 678 675 672 670 666 664 664 664 661 658 655 654 652 649 648 647 646 645 643 643 642 640 639 639 638 638 637 636 636 636 636 636 636 636 637 637 638 639 640 641 643 644 645 647 648 650 651 653 654 656 658 660 661 663 665
739 737 734 732 728 726 724 724 722 720 718 717 715 714 713 710 708 707 705 703 701 699 697 695 692 686 680 677 678 680 681 678 674 671 669 664 662 662 662 660 656 653 651 650 648 646 645 644 642 641 640 639 638 637 635 635 634 633 633 633 633 632 632 632 633 633 633 634 635 636 637 638 640 641 643 644 646 647 649 651 653 655 656 658 659 661
737 735 733 730 727 724 723 722 720 719 717 715 713 712 710 709 708 706 704 702 700 698 695 693 691 687 682 676 673 675 679 678 674 670 668 664 661 660 661 659 656 652 650 648 646 644 643 642 640 639 638 637 635 634 633 632 631 631 630 629 629 629 629 629 629 629 629 630 631 632 633 634 636 637 638 640 642 643 645 647 649 651 653 654 655 657
735 733 731 728 726 723 722 720 719 717 716 714 713 711 708 707 706 705 703 701 699 697 694 691 688 685 682 677 673 673 677 676 673 669 666 662 659 658 659 658 654 651 648 646 644 643 641 639 638 637 636 634 633 632 630 630 629 629 628 627 626 626 626 625 625 625 626 626 627 628 629 630 632 633 634 636 638 639 641 643 645 647 649 650 652 653
732 731 729 728 725 722 720 718 717 716 715 713 712 710 708 705 704 703 701 699 697 694 693 690 686 682 679 675 672 671 674 674 672 668 664 660 657 655 656 655 652 648 646 643 642 640 639 637 635 634 633 632 630 629 628 627 626 626 626 625 624 623 623 623 623 623 623 623 623 624 625 626 628 629 631 632 633 635 637 639 641 643 644 646 648 650
731 728 727 727 725 722 718 716 715 715 714 713 711 709 707 704 702 700 698 696 694 692 689 687 683 679 677 674 670 669 672 673 670 666 662 658 654 652 653 652 650 647 643 640 639 638 637 635 633 631 630 628 628 626 625 623 623 623 623 622 622 621 620 620 620 620 619 619 619 620 621 622 623 625 627 628 630 631 633 635 637 639 641 642 644 647
729 726 724 724 724 721 718 715 713 713 713 712 710 708 705 703 700 697 695 693 691 688 686 683 679 676 674 671 668 667 669 670 668 665 661 656 651 648 649 649 648 644 640 638 636 636 634 633 630 628 627 626 624 623 622 621 619 619 619 619 618 618 618 617 616 616 615 615 616 617 618 618 620 621 623 624 626 627 629 631 633 635 637 639 641 643
728 725 723 722 721 719 716 714 712 711 710 710 708 706 703 701 699 695 692 690 688 685 682 678 676 673 671 668 665 663 664 665 665 663 659 653 647 643 646 646 644 641 637 635 634 633 631 630 628 626 624 623 622 621 619 618 617 615 615 614 615 615 614 614 613 613 613 613 613 613 614 615 616 617 618 620 622 623 625 627 629 631 633 635 638 640
726 723 721 719 718 716 714 712 710 708 708 706 705 703 700 698 696 693 689 687 684 681 678 675 672 668 665 663 661 659 659 660 661 659 656 650 644 641 642 643 641 637 633 632 631 630 628 626 624 623 621 620 618 618 617 615 614 613 611 611 611 611 611 610 610 610 610 609 609 609 610 611 612 613 614 616 618 619 621 623 625 627 629 631 633 635
723 721 719 717 715 713 712 710 708 706 705 703 701 699 697 695 693 690 687 684 681 678 675 672 668 663 659 658 656 654 653 655 656 655 651 646 641 638 638 638 637 633 630 628 628 628 626 623 621 620 618 617 615 614 614 613 611 610 608 608 608 608 607 607 607 607 607 606 605 605 606 607 608 609 610 612 613 615 617 619 621 623 625 627 629 631
721 719 717 714 713 711 709 708 706 704 703 701 699 697 695 692 689 687 683 681 678 677 673 670 664 659 656 654 652 649 648 650 650 649 647 643 638 634 633 633 633 630 626 625 624 624 623 620 618 617 615 613 612 612 611 610 609 608 606 605 604 603 603 603 604 603 603 602 602 602 603 603 604 605 607 608 610 611 613 615 617 619 621 623 625 628
718 716 714 712 710 708 706 704 702 701 699 698 697 695 693 691 688 684 680 678 677 675 673 668 662 657 653 652 648 646 645 646 646 645 643 641 636 632 629 629 628 626 623 621 620 620 619 617 615 613 612 610 609 608 608 607 606 605 603 602 601 600 599 599 599 599 598 599 599 599 600 600 601 603 604 605 606 608 609 611 613 616 618 620 623 625
715 713 710 708 706 704 703 701 699 697 696 694 693 693 692 690 687 682 678 676 676 674 671 666 661 656 652 649 645 643 643 642 642 641 641 639 634 628 625 625 625 623 621 618 616 615 615 613 611 609 608 607 606 606 604 604 603 602 601 600 598 597 596 595 595 595 595 595 596 596 597 598 599 600 601 602 603 604 606 608 610 613 615 618 620 622
711 709 707 705 703 701 699 698 696 694 692 691 690 689 689 688 685 680 676 675 674 672 668 664 660 656 652 648 644 642 640 638 638 638 638 636 630 625 623 623 622 620 619 616 613 611 610 608 607 606 605 604 603 603 602 601 600 599 598 597 595 594 593 592 591 591 591 591 592 593 593 594 595 597 598 599 600 601 603 605 607 610 613 615 617 619
708 706 704 702 700 698 696 694 692 690 689 688 687 686 685 683 681 678 675 673 672 669 665 661 658 655 651 648 643 639 635 633 634 635 635 632 627 623 622 621 619 618 617 615 612 608 604 603 602 602 601 601 600 599 599 598 597 596 595 593 592 591 589 588 588 587 587 588 588 589 590 591 592 593 594 595 596 598 599 601 604 607 610 612 613 615
705 703 701 698 697 695 693 691 689 687 685 684 683 682 680 679 677 675 673 671 669 667 663 659 655 653 650 647 642 636 630 629 630 632 632 628 624 620 619 618 616 615 614 613 610 605 600 598 598 598 598 598 597 596 596 595 594 593 592 591 589 588 587 586 585 584 584 584 584 585 586 587 588 589 590 591 593 594 595 597 600 603 606 608 610 611
703 701 698 696 694 693 691 688 687 684 683 681 679 678 676 675 673 671 669 668 666 663 660 657 653 650 648 645 641 634 628 627 628 630 629 626 622 618 618 616 613 612 611 611 608 605 600 596 594 595 596 595 594 593 593 593 592 591 590 589 587 585 584 583 583 582 581 581 581 581 582 583 584 585 586 587 588 590 591 593 596 599 602 604 605 607
700 698 696 694 692 690 688 686 684 682 680 678 676 674 673 671 669 668 666 664 662 660 658 654 651 647 644 641 637 633 628 626 626 627 627 625 621 617 615 613 611 609 608 607 606 603 600 596 594 593 593 593 592 591 591 590 590 589 588 587 585 583 582 581 580 579 578 578 577 577 578 579 580 581 582 583 585 586 588 589 592 595 598 600 601 603
698 696 694 692 690 688 685 683 681 679 677 675 673 671 669 667 665 663 662 660 658 656 654 652 648 645 641 638 633 629 626 624 624 625 625 623 619 615 613 611 608 607 605 603 602 600 598 595 593 592 591 590 589 589 588 588 588 587 587 585 584 582 580 579 578 577 576 575 574 574 575 575 576 577 578 579 581 582 584 586 588 591 593 595 597 600
696 694 692 690 687 685 683 680 678 676 674 672 669 668 666 663 662 660 658 656 654 652 650 648 645 643 639 635 631 626 622 621 622 623 622 620 617 613 611 608 606 604 603 600 599 597 594 592 590 590 589 588 586 586 586 586 585 585 584 583 581 579 578 576 575 574 574 573 572 572 572 572 573 573 574 575 577 578 580 582 584 587 589 592 594 596
695 692 690 688 685 683 680 678 675 673 671 668 666 664 662 660 658 656 654 652 650 648 646 643 641 639 636 633 629 625 620 619 619 620 619 618 616 613 609 606 604 603 601 598 596 594 592 589 587 587 586 585 583 583 582 583 583 582 581 579 578 577 575 573 573 572 571 570 569 568 568 569 569 570 570 571 572 574 576 578 581 583 586 588 591 593
693 690 688 685 683 681 678 675 673 670 668 665 663 661 659 657 654 652 650 648 646 643 641 638 636 634 632 629 626 623 619 617 617 616 616 615 613 611 608 604 602 601 599 597 594 592 590 588 585 583 583 582 580 579 579 580 580 579 578 577 576 574 573 571 570 569 568 567 566 565 565 566 566 566 567 568 569 571 573 575 578 580 583 585 588 591
691 688 685 683 681 678 676 673 670 668 665 663 660 658 655 653 651 648 646 643 641 638 636 633 631 628 626 624 622 619 616 614 613 612 611 611 610 608 605 602 599 598 597 595 593 592 590 587 584 582 579 578 577 577 577 577 577 576 575 574 574 573 571 570 568 567 566 564 563 562 562 563 563 564 564 565 567 568 570 573 575 577 580 583 586 589
690 687 684 681 679 677 674 671 668 665 663 660 658 655 652 649 647 644 642 639 636 633 631 628 626 623 620 618 616 614 612 610 608 607 607 606 605 604 602 599 597 595 594 593 592 591 589 587 583 581 578 576 575 574 574 574 574 573 573 572 571 570 569 568 567 566 564 562 561 560 560 560 561 562 563 563 563 564 566 568 571 574 577 581 584 588
688 685 682 679 677 675 672 669 666 663 660 657 654 651 649 646 643 639 637 634 632 629 626 624 621 618 615 613 610 608 607 605 603 602 602 601 600 599 598 596 594 592 591 590 589 588 588 585 583 580 578 576 574 573 572 572 571 571 571 570 569 567 566 566 565 564 562 560 558 558 558 558 559 560 561 561 560 560 562 564 567 570 573 577 581 584
686 683 680 677 675 672 670 667 663 661 658 654 651 648 645 642 639 636 633 630 627 625 623 620 617 613 611 608 606 603 602 600 598 597 596 595 594 594 593 592 590 589 588 587 586 585 584 583 581 579 578 576 574 572 571 569 569 569 569 568 567 565 565 564 564 563 561 559 557 556 556 556 558 559 560 560 558 558 559 561 564 568 571 574 577 579
685 682 678 675 673 669 666 663 661 658 655 652 648 645 642 639 636 633 629 626 623 621 619 616 613 610 606 603 601 599 597 595 593 592 591 590 589 589 588 587 586 586 585 584 583 581 581 580 579 578 576 575 574 572 569 568 567 567 567 566 565 565 564 562 561 561 560 558 555 554 555 555 557 558 559 559 558 557 558 559 562 564 568 571 574 576
683 680 676 673 670 667 664 661 658 655 652 649 646 643 639 637 634 631 627 624 620 617 615 613 610 606 602 598 595 593 592 590 589 587 586 585 584 583 583 583 582 582 582 581 579 578 577 577 576 575 574 574 573 571 568 566 566 565 565 564 565 564 563 560 559 558 558 555 553 552 553 554 556 558 558 558 557 556 556 558 560 562 565 568 571 574
681 678 674 671 668 665 662 658 656 653 649 646 643 639 636 634 631 628 624 621 617 614 612 609 606 603 599 595 591 588 586 585 583 582 581 579 579 578 578 578 577 577 577 577 575 574 573 573 572 572 572 573 572 570 567 565 564 563 563 563 563 562 561 559 558 557 556 553 551 550 550 552 555 557 558 557 555 554 554 556 558 561 564 566 569 572
679 676 673 669 666 663 659 656 653 650 647 643 640 637 633 631 628 625 622 618 615 612 609 606 603 599 595 591 588 585 583 580 579 577 576 575 574 573 573 573 573 573 573 572 572 571 571 570 569 569 569 570 569 567 565 563 563 561 560 560 560 560 558 558 557 556 555 553 550 548 548 551 554 556 556 555 553 552 552 553 556 559 562 565 568 570
678 674 670 667 664 661 657 654 651 647 644 640 637 633 630 628 625 622 619 616 613 609 606 604 601 598 593 588 585 583 580 577 575 574 573 571 570 569 568 568 568 568 568 568 567 567 567 567 566 567 568 567 566 563 562 561 561 559 558 558 558 558 557 557 556 555 553 551 549 548 548 549 552 554 554 552 550 549 549 551 554 557 560 563 566 568
675 672 668 665 662 658 655 651 648 645 641 638 634 631 628 625 622 619 616 613 610 607 603 601 598 595 591 587 583 581 578 575 572 570 569 568 567 566 565 564 563 563 563 563 563 563 563 563 564 565 565 564 562 560 558 558 558 557 556 556 556 556 555 554 553 553 552 550 548 546 546 548 550 551 550 549 547 547 548 550 552 555 558 561 563 566
673 670 667 663 659 656 652 648 645 642 638 634 631 628 625 622 620 617 613 610 608 605 601 598 595 591 588 584 581 579 576 573 570 568 567 565 564 563 562 561 560 559 559 559 559 559 560 560 560 561 561 560 559 557 555 555 555 554 554 554 554 554 553 552 551 551 550 548 547 545 545 546 547 548 547 546 544 544 546 548 551 554 557 559 561 564
672 668 665 661 658 653 650 646 643 639 636 632 628 625 621 619 617 614 611 608 605 602 599 595 592 588 584 581 578 576 573 571 568 566 564 563 561 560 559 558 557 556 555 555 556 556 556 556 556 556 556 556 555 554 553 553 552 552 552 552 552 551 551 550 549 549 548 547 545 543 543 544 545 545 544 543 542 542 544 546 549 553 556 558 560 562
670 667 663 659 656 652 648 644 641 637 633 630 626 622 618 615 613 611 608 605 602 599 596 593 589 586 582 578 575 573 571 568 566 563 561 560 559 558 556 555 554 553 552 552 552 552 553 553 552 551 551 551 551 551 551 550 550 550 550 550 549 549 548 548 547 547 546 544 543 542 542 543 543 543 542 540 539 541 543 546 549 552 554 556 558 560
668 664 661 658 654 650 646 642 639 635 631 628 624 620 616 613 610 607 605 602 599 596 593 590 587 583 580 576 573 570 568 566 563 560 558 557 556 555 553 552 551 550 549 548 548 548 548 548 548 547 546 545 546 547 548 548 548 548 548 547 547 547 547 546 545 544 543 542 540 540 540 540 540 540 539 538 538 540 542 545 548 550 552 555 557 559
Wind_Speed
18 19 19 19 20 21 22 21 21 22 23 23 23 23 23 24 25 26 26 27 28 29 30 30 30 31 32 32 33 34 35 36 37 38 39 40 41 41 42 42 43 44 44 45 45 46 46 47 47 47 47 48 47 47 47 47 47 46 44 43 43 42 42 42 42 43 44 45 44 44 43 44 44 45 44 45 46 48 49 50 52 54 56 56 55 55
19 19 20 19 20 21 22 21 20 21 22 23 24 24 25 26 27 27 28 28 28 28 29 29 30 30 31 32 32 33 34 35 36 37 39 40 41 42 42 43 43 44 45 45 45 46 46 47 47 47 47 47 48 48 48 48 48 47 47 46 45 44 43 43 43 43 44 45 45 44 43 43 43 44 45 45 47 50 51 51 51 53 55 56 57 56
20 20 20 19 19 20 21 21 21 21 22 24 25 25 26 27 27 27 27 27 27 27 27 28 28 29 31 31 32 32 33 33 34 35 36 37 38 39 40 41 42 43 44 45 45 46 46 46 47 47 47 48 48 48 48 48 48 48 48 48 48 47 46 45 44 44 44 45 46 45 44 44 44 45 46 46 47 50 54 55 54 54 54 55 56 57
20 20 20 20 20 20 21 21 22 22 23 24 25 26 27 27 27 26 26 26 26 27 27 28 28 29 30 30 31 31 31 32 33 34 35 36 37 38 39 41 42 43 44 45 45 46 46 47 47 47 48 48 48 48 48 49 49 49 49 49 49 48 47 46 45 45 45 46 47 47 46 46 47 47 47 46 46 48 53 57 58 57 55 53 55 57
20 20 21 21 21 21 22 22 22 23 24 25 25 25 25 25 25 25 25 26 26 27 27 27 28 28 29 29 30 31 32 33 34 35 36 37 39 40 41 42 43 44 45 46 46 47 47 48 48 48 49 49 50 49 49 49 49 49 49 49 49 49 48 48 47 46 46 46 47 48 48 48 48 49 48 47 46 46 50 55 58 59 58 55 54 55
21 20 21 21 22 22 22 22 23 23 24 24 24 24 24 24 24 25 25 26 26 27 27 27 28 28 29 30 31 32 33 34 35 36 37 38 39 40 41 42 43 44 44 45 46 47 48 49 49 50 50 51 51 51 51 50 50 50 50 50 50 50 50 49 48 47 47 47 47 48 49 49 49 49 49 48 46 45 47 52 57 60 61 59 55 53
22 21 21 21 22 23 23 23 23 23 23 24 24 24 24 24 24 25 25 26 27 27 28 29 29 29 30 31 31 32 32 33 34 34 35 35 36 37 38 38 39 41 42 43 44 45 46 48 49 49 50 51 51 51 51 51 50 50 50 50 50 50 50 50 49 49 48 48 48 48 49 49 50 49 49 48 47 47 48 50 54 58 60 61 59 55
23 23 22 22 22 23 23 23 23 22 22 23 24 24 25 25 25 25 26 27 27 27 28 28 28 28 28 29 29 29 30 30 31 31 32 32 33 33 34 35 35 36 38 39 40 41 43 44 45 47 48 49 49 50 50 50 50 50 50 50 50 50 50 50 50 50 49 49 48 48 49 49 49 49 49 48 48 49 51 53 54 56 59 60 60 59
23 24 23 22 22 23 23 24 23 22 21 22 23 24 26 26 27 27 27 26 26 25 25 26 27 28 28 28 28 29 29 30 30 31 31 31 32 32 32 33 34 35 36 37 38 39 40 41 42 43 44 45 47 47 48 49 49 49 49 49 49 50 50 51 51 50 50 50 49 49 49 49 49 49 49 48 49 51 54 55 56 57 57 58 59 60
22 22 23 22 22 21 22 23 23 23 22 22 23 24 25 25 26 26 26 26 25 24 24 25 27 28 29 29 28 29 30 31 31 32 32 33 33 34 34 35 36 36 37 39 40 41 42 43 43 43 43 44 45 45 46 47 47 48 48 48 49 49 50 51 51 51 51 51 50 50 49 49 49 49 49 49 49 50 53 55 56 58 59 59 59 59
21 21 21 22 22 21 22 23 24 24 23 23 24 24 23 23 23 24 25 26 26 26 26 27 27 28 29 30 30 30 30 31 32 32 32 33 34 35 35 36 37 37 38 39 40 41 42 43 44 44 44 44 44 45 45 46 46 47 48 48 48 49 50 50 51 51 52 51 51 51 50 49 49 49 49 49 49 50 51 53 55 57 60 61 61 60
20 20 21 21 22 22 22 23 23 23 23 22 22 22 22 22 22 22 24 25 27 28 29 29 29 29 30 31 31 31 31 31 32 32 32 32 32 32 32 33 33 34 34 35 36 37 38 39 40 41 42 43 43 43 44 45 46 47 48 49 49 49 49 50 51 51 52 52 52 51 51 50 49 49 49 49 49 50 50 51 53 55 58 61 62 61
20 20 21 21 22 22 22 23 23 22 22 21 20 21 22 23 23 23 24 26 28 28 29 30 31 31 31 31 31 31 31 32 32 32 32 32 31 31 30 31 31 31 30 31 32 32 33 34 36 37 39 40 41 42 43 44 45 46 47 48 49 49 50 50 50 51 52 52 52 52 51 51 50 49 48 49 49 49 49 49 51 53 56 59 61 62
20 21 21 21 21 22 22 22 22 22 22 22 22 23 24 25 25 25 26 27 28 29 29 30 31 32 32 31 31 31 31 31 32 32 32 32 31 30 30 30 30 30 29 30 30 30 31 31 33 34 35 37 38 39 40 41 43 44 45 46 47 48 49 50 50 51 51 52 52 53 52 51 51 49 49 48 48 48 48 48 49 52 54 56 59 62
20 20 19 19 20 21 21 22 22 23 23 24 24 25 26 27 26 25 25 26 28 29 28 29 31 32 32 32 31 30 30 30 30 30 31 31 31 30 29 30 30 30 29 29 29 29 29 29 29 30 30 32 33 35 37 38 40 41 42 43 44 45 47 48 49 50 51 52 52 53 53 52 51 51 50 49 49 48 47 47 50 53 54 55 58 62
20 19 18 19 20 22 23 23 23 24 25 26 26 26 26 26 26 25 25 26 27 27 26 25 26 27 30 32 31 28 28 28 29 29 29 30 30 29 28 29 30 30 29 29 29 29 28 27 27 28 28 29 30 31 32 34 36 38 40 41 42 44 45 46 48 49 51 52 52 52 53 52 52 51 50 50 49 48 46 46 49 53 55 56 57 60
21 20 20 20 21 23 25 25 25 25 26 27 26 26 25 25 25 25 25 25 25 24 23 21 14 12 19 29 31 28 25 26 27 27 28 30 30 30 29 29 30 30 30 30 30 30 28 28 29 30 31 32 33 33 33 33 33 34 36 38 40 42 43 44 46 48 49 51 51 52 52 52 52 52 51 50 49 48 47 46 47 52 55 55 56 59
22 21 22 22 23 24 26 26 26 26 26 26 26 26 25 25 25 25 26 25 24 23 22 21 17 11 9 16 26 30 26 26 27 28 28 30 32 32 31 30 31 32 32 32 32 32 31 31 31 32 34 36 38 38 38 37 36 36 35 35 36 38 40 43 45 47 48 49 50 51 51 52 52 51 51 50 50 49 48 46 47 50 53 54 54 57
23 23 23 23 24 25 26 26 26 26 26 26 26 26 26 26 27 27 27 26 25 25 24 22 22 22 20 23 30 32 29 28 28 29 28 30 32 33 32 31 32 33 33 33 33 33 33 33 33 34 36 38 40 41 40 39 38 37 36 36 36 36 38 39 41 43 45 47 49 50 50 51 51 51 51 51 50 49 48 47 48 49 51 51 52 54
26 26 25 25 26 27 27 28 28 27 27 26 26 26 27 28 29 29 28 28 28 27 27 25 25 26 28 31 34 34 31 28 28 28 28 30 32 34 32 32 32 33 33 34 34 33 33 33 33 34 35 36 39 41 41 41 39 38 37 37 37 37 38 38 39 40 42 44 46 48 49 50 50 51 51 51 50 50 49 49 48 49 49 50 51 53
28 28 27 26 26 26 27 29 29 29 29 28 28 28 28 29 29 29 28 29 29 29 28 27 28 30 31 33 35 35 32 29 28 28 28 29 31 33 33 32 31 32 33 34 34 34 33 34 33 33 33 34 36 38 40 41 40 39 39 38 38 38 38 39 39 39 40 41 43 46 48 49 49 50 50 51 51 51 50 50 49 49 49 51 53 55
29 30 30 29 28 28 30 32 32 32 32 31 30 29 29 29 29 29 31 31 31 30 30 31 32 34 35 36 37 36 34 31 30 30 28 25 28 33 34 32 31 32 32 34 34 34 34 34 34 34 33 34 35 36 38 40 41 41 40 40 39 39 39 40 40 40 40 40 42 45 47 48 49 49 50 50 51 51 51 51 50 50 50 51 54 57
30 30 30 30 30 30 31 32 33 33 32 31 30 30 31 31 32 34 34 34 33 34 36 37 39 40 40 40 40 39 36 34 33 32 29 19 22 31 35 33 32 32 33 34 34 34 33 34 34 34 34 34 34 35 37 39 41 42 41 40 40 40 40 40 40 40 40 40 41 43 47 49 50 50 50 50 51 51 51 51 51 50 50 51 53 56
29 30 30 30 30 30 31 32 32 31 30 30 31 32 33 33 33 33 34 35 35 35 37 39 40 40 40 41 40 39 37 35 33 31 28 21 23 30 34 33 31 32 33 33 33 33 33 33 33 33 33 34 34 35 36 37 39 41 41 40 40 40 39 39 39 39 39 39 40 41 45 48 50 50 50 50 51 51 51 51 51 50 50 51 52 54
28 29 30 30 31 31 32 33 34 34 33 34 34 35 36 36 36 36 36 36 36 35 34 34 33 33 34 35 34 34 35 33 32 31 28 24 26 31 33 32 31 31 32 33 33 32 32 32 33 33 33 33 33 34 35 36 37 39 39 39 39 39 38 38 37 37 38 38 39 39 42 45 48 50 51 51 51 51 51 50 50 50 50 50 51 53
30 31 33 34 35 36 38 39 40 40 40 39 39 39 38 38 37 37 36 35 34 33 31 26 23 25 30 31 30 31 32 31 30 29 28 25 25 27 31 31 30 30 31 32 33 32 32 32 32 32 32 32 32 33 33 34 35 36 37 38 38 38 37 37 37 37 37 38 38 38 39 41 44 47 49 51 51 51 50 49 49 49 49 49 50 52
32 34 35 37 38 39 40 41 41 42 42 41 41 40 38 37 36 34 33 33 32 31 27 18 15 19 25 24 26 29 31 30 28 27 27 25 23 24 28 30 30 30 30 31 31 31 31 31 32 32 32 31 31 31 32 33 33 34 35 36 37 38 38 37 37 37 38 38 38 37 37 38 40 43 46 48 50 50 50 49 49 48 48 48 49 51
32 33 35 36 36 37 37 38 38 38 38 38 38 37 35 34 32 30 30 31 31 29 25 18 14 14 14 14 22 30 31 30 28 27 26 24 20 21 26 29 29 28 28 28 30 31 31 31 31 31 31 31 30 30 31 31 32 33 34 35 36 37 38 38 38 38 39 39 39 38 38 37 38 39 42 45 48 50 50 49 48 48 48 47 47 47
30 31 32 32 33 33 34 34 34 34 34 34 34 33 32 30 29 29 30 31 29 27 25 22 19 16 14 20 26 30 30 31 30 29 27 24 21 22 27 28 27 26 25 24 25 27 29 30 30 30 30 30 29 29 29 30 30 31 32 33 35 36 38 39 39 39 39 39 39 39 39 39 38 38 40 43 46 49 50 49 48 48 47 46 45 44
28 28 29 29 30 30 30 30 31 31 31 31 31 30 29 28 29 30 31 30 28 27 25 25 24 23 21 20 19 18 20 27 29 28 26 22 20 21 26 26 25 24 22 18 14 14 19 24 27 27 27 27 27 27 27 27 27 28 28 29 31 33 35 36 38 38 39 39 39 40 40 40 39 38 39 41 44 47 49 49 48 47 46 45 44 42
28 28 28 28 27 27 27 27 27 28 28 29 29 28 28 27 28 29 29 29 28 28 27 26 26 26 24 14 9 8 8 21 26 25 23 20 20 21 24 23 22 23 22 17 8 3 7 11 19 24 24 24 24 25 25 25 25 25 25 26 27 28 30 32 33 35 37 38 39 40 40 40 40 39 38 39 42 46 49 49 49 47 44 42 41 40
27 27 27 26 26 26 26 26 26 26 27 27 27 27 27 26 26 27 28 28 29 29 28 28 27 28 27 19 14 12 11 23 27 25 24 21 22 23 25 23 23 24 24 22 15 9 5 3 11 21 22 22 22 23 23 23 24 24 24 25 26 27 28 29 30 31 33 35 37 38 39 39 38 37 37 38 41 45 48 49 50 48 44 40 38 38
26 26 26 26 26 26 26 26 26 26 27 27 27 27 27 27 27 27 27 28 29 30 30 29 29 28 28 27 25 24 26 29 30 28 26 24 23 24 25 25 25 25 26 25 24 21 13 9 13 20 22 22 22 23 24 24 25 25 25 26 27 27 28 28 29 29 30 31 33 34 35 35 35 35 35 37 40 44 47 49 51 50 46 41 38 36
26 26 26 26 26 26 26 26 26 27 27 27 27 27 27 28 28 27 28 28 29 30 30 31 30 29 28 26 26 27 30 31 31 29 27 25 23 23 25 25 25 25 24 23 24 24 20 21 21 20 20 23 24 24 24 25 25 26 26 26 27 28 28 28 28 28 28 28 29 29 30 31 31 32 33 35 39 44 47 49 51 51 48 43 39 35
25 25 26 26 26 26 26 26 27 27 27 28 28 28 28 28 28 28 29 29 29 30 31 32 32 32 31 28 25 26 29 31 31 29 28 26 25 24 24 23 24 23 21 20 20 18 14 20 22 20 16 18 21 23 24 25 25 25 25 26 27 27 28 27 27 26 27 27 26 25 25 26 27 28 30 34 38 43 47 49 51 52 51 47 42 37
24 25 25 25 26 26 26 27 27 27 28 28 28 28 28 28 29 30 30 30 31 31 31 33 34 35 34 33 32 31 33 35 34 32 30 29 28 27 25 24 24 22 19 18 17 15 11 13 18 21 16 11 13 18 23 24 24 24 24 25 25 26 25 25 25 25 26 26 25 24 23 23 23 24 26 31 36 41 46 50 52 53 54 51 47 41
24 25 25 26 26 26 27 27 28 28 28 28 29 29 29 29 30 31 32 32 32 33 35 35 36 37 37 37 37 37 38 37 36 35 34 32 31 30 28 27 26 24 22 19 17 16 13 10 12 14 12 10 8 12 19 22 22 23 23 24 24 25 25 25 25 25 24 25 24 23 21 20 20 21 25 29 34 39 45 49 52 53 55 55 50 44
24 25 25 26 26 27 28 28 28 29 28 29 30 30 31 32 33 33 33 34 35 36 37 37 37 38 39 39 40 40 40 40 39 39 37 35 34 33 32 31 29 27 24 22 21 19 15 11 10 10 9 10 13 17 20 21 21 21 22 23 24 25 26 26 27 27 27 26 25 23 20 19 19 20 23 27 32 37 42 46 50 53 54 55 52 46
24 25 26 27 27 27 27 28 29 30 30 31 32 33 34 34 35 35 35 35 36 36 36 36 36 37 38 40 40 41 41 41 41 41 40 39 37 35 34 33 33 31 29 25 24 24 21 15 10 7 7 8 12 17 21 21 20 21 22 22 24 25 26 26 27 28 29 28 25 22 20 19 19 20 22 25 30 35 38 41 45 49 51 50 48 45
25 26 27 28 28 28 28 30 31 32 33 34 35 35 35 34 34 33 34 34 34 34 34 35 35 35 36 37 38 38 39 40 40 40 40 40 39 36 35 34 33 32 30 28 27 28 27 23 18 15 13 10 10 13 18 20 21 21 21 19 19 21 23 24 25 26 28 27 24 22 19 18 19 21 23 25 28 33 35 37 40 43 46 44 41 38
26 27 27 29 30 30 30 31 32 33 33 34 34 34 34 33 33 33 32 31 30 30 31 31 32 32 33 33 34 35 36 37 38 38 38 39 39 37 35 34 33 32 31 29 29 29 29 27 24 21 18 17 16 16 17 19 21 22 21 19 19 21 23 25 26 27 28 27 24 21 19 17 19 22 25 24 27 31 35 36 37 40 42 41 39 35
27 27 28 30 31 31 32 32 33 33 33 32 31 31 31 31 31 32 32 31 30 31 32 31 31 31 32 33 33 33 33 34 35 36 37 39 39 39 37 35 33 32 30 28 29 29 30 29 28 26 24 22 18 15 15 19 22 22 22 21 22 23 24 26 27 27 27 27 24 21 19 18 20 23 25 24 25 30 33 35 37 39 40 40 38 36
27 28 29 30 31 32 33 32 32 32 32 31 30 31 31 31 31 32 33 32 32 33 33 31 31 31 31 31 32 32 32 33 33 33 35 36 38 38 37 36 34 32 30 28 27 29 30 30 29 29 29 28 24 19 15 18 21 22 22 23 22 19 15 20 24 25 26 25 23 20 19 19 21 24 26 25 25 29 32 35 37 38 40 39 38 36
27 28 29 30 30 31 31 31 31 31 30 30 31 33 33 32 32 31 32 32 32 32 30 31 31 30 29 29 29 30 30 30 30 31 33 35 36 37 37 37 36 34 32 30 27 27 27 27 28 30 31 29 27 25 22 21 21 21 22 23 23 20 16 18 22 24 24 23 20 18 19 19 21 25 28 26 26 29 31 33 35 38 39 38 37 36
28 29 29 30 31 31 30 31 32 32 31 31 32 33 33 32 32 32 30 31 31 31 31 31 29 27 24 25 26 27 27 27 27 27 28 30 33 35 36 36 35 34 33 32 31 28 25 24 25 27 28 28 28 27 26 24 23 23 23 24 23 23 25 26 26 26 25 24 20 17 17 19 22 25 27 26 26 28 30 32 33 35 36 37 37 36
29 29 30 31 31 31 31 32 32 31 31 32 32 32 33 32 31 30 31 31 31 31 31 31 28 23 19 21 24 26 25 25 25 25 24 25 26 29 31 33 34 33 32 32 32 31 29 28 26 25 25 25 25 27 28 28 26 24 24 24 23 23 24 25 26 27 27 25 22 19 17 18 21 24 25 25 24 26 29 32 33 33 34 36 36 36
29 29 30 30 31 31 32 33 33 32 32 32 32 32 33 32 31 31 32 32 32 32 32 31 28 25 23 23 24 23 22 23 24 25 24 23 23 24 26 29 31 33 33 32 31 31 31 30 29 26 24 21 20 22 27 29 27 25 25 24 23 22 22 23 25 27 28 27 24 21 18 18 20 23 24 24 23 24 27 30 32 34 35 36 36 36
30 30 31 31 31 31 32 33 33 32 32 32 32 32 32 32 32 33 32 33 32 31 30 29 27 25 24 25 25 25 24 23 23 24 24 23 22 21 22 24 26 29 31 31 31 31 31 31 30 29 28 24 19 19 23 26 27 27 26 25 23 21 21 23 25 27 28 28 26 23 20 19 20 21 22 20 19 20 23 27 31 33 34 36 36 36
28 29 30 30 30 30 31 32 32 32 32 32 32 33 33 33 33 32 31 32 31 30 28 26 25 23 23 24 25 26 26 25 25 25 24 23 23 21 20 20 22 23 25 27 29 29 30 31 32 32 32 30 26 24 24 25 26 27 26 25 23 22 22 23 25 26 27 28 27 26 24 23 24 24 22 18 16 17 20 24 28 31 34 35 36 37
29 30 31 31 31 32 32 32 32 32 32 33 33 33 34 34 32 31 30 30 29 28 26 26 25 23 21 23 24 26 25 24 24 24 24 23 22 21 19 19 20 20 20 21 22 24 24 25 27 31 35 35 33 29 26 26 26 26 26 25 24 23 22 22 24 26 26 26 26 26 26 27 26 25 23 18 16 16 18 21 24 27 32 34 36 37
31 31 31 31 31 32 32 32 32 32 33 33 33 33 32 32 32 31 30 29 28 28 28 27 26 24 22 23 24 25 25 24 23 22 23 23 22 20 19 18 18 17 15 12 12 13 13 12 14 19 27 35 37 35 30 28 26 24 23 24 24 23 22 22 24 25 26 26 25 25 26 26 26 24 21 19 15 13 13 16 20 24 29 33 35 36
Wind_Direction
296 297 297 297 296 296 294 294 294 294 295 296 296 297 297 296 295 294 294 293 293 293 292 291 291 290 290 289 288 287 286 284 283 281 279 278 277 276 277 278 278 279 280 279 279 278 277 276 276 275 275 274 274 273 272 272 271 270 269 268 267 266 266 265 264 262 259 257 255 253 251 252 254 255 254 247 238 231 226 223 221 219 219 219 219 218
298 298 297 297 296 295 295 295 296 296 296 297 296 297 297 296 295 294 294 292 291 291 291 291 290 290 289 289 289 288 287 286 284 283 282 280 279 278 277 276 277 277 278 279 278 278 277 276 275 275 274 274 274 273 273 272 272 271 270 269 268 267 266 264 263 261 259 257 255 253 251 251 252 254 255 252 244 236 231 228 224 220 218 218 218 218
301 300 299 299 298 296 296 298 299 298 297 296 296 296 295 294 293 292 292 292 291 290 290 290 290 290 289 289 289 288 287 286 286 285 284 283 283 281 280 278 277 277 277 277 278 278 277 276 275 275 274 273 273 273 272 272 271 271 270 270 269 268 267 266 264 261 259 257 255 254 252 251 251 253 254 254 248 239 234 232 229 224 219 216 216 217
299 299 300 302 301 299 298 299 300 299 298 296 295 294 294 293 291 291 290 290 290 290 289 289 288 288 289 289 288 288 287 287 287 286 285 284 284 283 281 279 278 277 276 276 276 276 276 276 275 274 274 273 272 272 271 271 271 270 270 269 268 268 267 266 264 262 259 257 255 254 253 252 252 253 254 255 251 243 236 234 232 229 224 217 215 215
298 299 301 302 302 300 300 300 300 300 298 296 294 294 293 292 291 290 290 290 290 290 290 289 288 288 288 288 288 288 287 286 286 285 284 283 282 281 280 279 278 277 276 275 274 274 274 274 273 273 272 272 271 271 270 270 269 269 268 268 267 267 266 265 264 262 260 258 255 254 253 253 253 254 255 256 254 247 239 235 233 232 229 223 218 215
297 298 300 300 300 300 301 301 300 300 299 297 296 294 293 292 291 291 291 291 290 290 290 289 289 288 287 286 286 286 285 285 284 283 283 282 281 281 280 279 279 278 277 275 274 273 272 272 271 271 270 270 270 270 269 268 268 267 267 266 266 266 265 264 264 263 261 259 257 255 254 254 254 255 255 256 254 250 243 237 234 233 231 228 224 219
296 297 298 298 298 298 299 299 299 299 299 298 298 297 296 294 293 291 291 291 291 291 290 289 288 287 286 286 285 285 285 284 284 283 283 282 281 281 281 280 280 279 278 277 276 275 273 272 271 270 270 269 269 268 268 267 266 266 265 264 264 264 264 263 263 262 261 259 258 256 255 254 254 255 255 255 253 250 245 239 234 232 232 231 229 225
296 297 297 297 298 298 298 297 296 296 297 298 299 300 299 298 296 294 293 291 290 290 290 289 288 288 287 286 286 286 286 286 286 285 284 284 283 282 281 281 280 280 280 279 278 277 276 275 273 272 270 269 268 268 267 266 266 265 264 263 263 262 262 261 261 261 260 259 258 257 256 255 255 254 254 253 251 247 243 238 233 231 231 231 231 229
294 296 296 296 296 297 298 297 296 296 296 297 297 299 300 299 298 297 295 293 291 290 290 290 290 290 290 289 289 288 288 287 286 286 285 285 284 283 283 282 282 281 281 280 280 279 278 277 276 274 272 271 269 268 267 266 266 265 264 263 262 261 260 260 260 259 259 258 258 257 256 255 254 253 252 251 248 244 239 235 231 229 229 229 230 229
291 292 294 295 294 294 295 296 297 298 297 296 294 294 294 296 297 298 297 296 295 294 293 292 293 293 293 292 291 290 290 288 286 285 284 284 283 283 283 282 282 281 280 279 279 278 278 277 276 275 274 272 270 268 267 266 266 265 265 264 262 261 260 259 258 258 258 257 257 256 255 254 253 252 251 249 247 244 239 234 230 228 227 228 228 228
292 292 294 296 296 295 294 294 296 298 298 296 294 292 290 291 294 297 298 298 298 298 296 295 294 294 294 294 293 291 291 289 288 286 285 284 283 283 282 281 280 280 279 278 277 276 276 275 274 274 273 271 270 269 267 266 266 265 265 264 263 262 260 259 258 257 257 256 255 255 254 253 252 251 250 248 247 245 241 237 233 229 228 227 228 228
293 295 295 296 297 297 296 295 295 297 298 298 297 296 294 293 294 296 296 297 298 298 298 296 294 292 292 292 292 292 290 289 288 287 287 285 284 283 283 282 281 280 279 278 277 276 275 274 273 272 271 270 269 268 267 266 266 265 265 264 263 262 261 259 258 257 256 255 254 254 253 252 251 250 249 248 247 246 245 242 238 234 230 228 227 227
292 294 294 295 294 295 296 297 298 298 299 298 297 296 296 297 297 296 294 293 294 295 296 295 294 292 290 289 290 290 290 288 287 286 286 285 284 283 283 282 281 280 280 279 277 276 274 273 273 271 270 269 268 268 267 266 266 265 264 263 263 262 261 260 258 257 256 255 254 253 252 251 250 249 248 248 247 247 246 245 242 239 234 230 228 227
292 293 293 293 292 293 294 296 297 297 296 295 294 294 295 296 296 295 293 291 291 292 293 293 292 291 290 289 288 287 287 287 286 286 284 283 282 281 281 280 280 279 279 278 276 275 274 273 272 271 270 269 268 266 266 265 265 265 264 263 262 261 260 260 258 257 255 254 253 252 252 251 250 248 248 247 247 247 247 246 244 241 237 233 229 228
292 293 292 291 291 291 292 293 294 293 293 293 293 294 295 295 294 293 291 290 291 293 293 291 290 290 289 288 287 287 286 285 285 284 284 282 281 280 279 279 278 278 277 275 274 274 274 274 274 274 273 271 269 267 265 264 263 263 263 263 262 261 261 260 258 257 255 254 252 252 251 250 249 248 247 247 247 247 247 245 241 239 238 235 231 229
290 290 289 290 290 289 290 290 291 291 292 293 293 294 294 293 293 291 290 290 292 293 292 291 291 290 289 287 286 286 286 285 285 284 284 283 282 281 280 280 279 278 277 275 275 275 276 277 277 278 279 279 278 276 272 268 265 263 262 262 262 262 262 261 259 257 255 253 252 251 250 249 249 248 247 247 247 247 247 244 240 238 238 236 233 229
288 288 287 288 288 288 289 289 289 290 291 292 292 292 291 290 291 291 290 290 291 291 290 288 288 289 291 290 288 286 286 287 287 286 286 284 283 282 282 281 281 279 278 276 275 275 276 277 278 278 278 280 282 284 284 282 279 275 270 266 263 262 263 263 261 258 255 252 251 249 249 248 248 247 247 246 246 246 246 244 240 237 237 236 233 229
285 285 285 285 286 287 288 289 289 290 290 291 292 292 291 290 290 291 290 290 289 289 288 286 283 281 287 289 288 287 288 288 288 287 285 283 282 282 281 281 279 278 277 276 274 274 274 274 274 274 275 277 279 281 283 285 286 286 284 278 271 266 264 263 261 258 255 252 250 249 248 247 247 246 246 245 245 245 245 244 240 237 237 237 234 230
284 283 283 284 285 287 288 288 289 290 291 291 292 293 293 292 291 291 290 288 287 285 285 284 282 281 281 282 284 286 287 286 285 284 282 281 280 280 280 278 277 276 275 274 273 273 273 272 272 272 272 273 275 277 278 280 282 284 285 285 283 279 272 266 260 256 252 250 249 248 247 246 246 245 245 245 244 244 244 243 240 238 237 238 236 231
284 283 282 283 286 287 287 286 287 288 290 292 293 294 293 292 291 289 287 286 284 283 282 281 280 280 280 280 281 283 284 284 282 281 279 279 278 278 278 276 276 275 274 273 272 272 272 273 272 272 272 272 273 274 276 277 277 278 280 281 283 283 282 278 271 262 255 249 247 246 246 246 245 245 244 244 243 243 242 242 240 239 239 238 236 233
284 283 281 282 284 286 286 286 286 287 289 291 291 291 289 289 288 287 286 286 285 283 281 279 278 279 280 280 280 281 281 280 279 278 278 277 276 276 275 274 274 273 273 272 271 271 271 272 272 272 271 271 272 273 274 275 276 276 276 276 277 279 281 282 281 276 268 258 250 247 246 246 246 245 244 243 242 242 241 240 240 239 238 236 234 232
281 281 281 282 281 281 282 283 285 286 287 287 286 285 285 286 286 286 286 285 284 282 281 279 279 279 279 279 279 279 278 275 274 273 275 275 274 273 273 273 272 271 271 271 271 271 271 271 270 270 270 270 270 271 273 274 275 275 275 274 274 275 276 278 280 281 277 268 257 250 248 247 247 246 244 243 242 241 240 239 239 238 237 235 233 231
277 279 280 281 280 279 280 282 283 284 285 284 282 280 281 280 281 282 282 281 280 279 279 279 279 279 278 277 276 276 274 271 269 268 269 268 269 271 272 271 270 269 269 269 270 270 270 270 269 269 269 269 269 270 271 273 274 275 275 274 273 273 273 274 276 278 279 274 265 255 249 248 247 247 245 243 241 240 239 239 238 237 236 235 232 231
277 278 279 280 280 279 280 281 282 283 283 282 280 279 278 277 276 276 277 277 277 277 278 279 279 278 276 275 274 272 271 268 266 264 262 262 266 268 269 269 268 267 267 268 269 269 269 269 268 268 268 268 268 269 270 271 273 274 275 275 273 272 272 272 273 276 277 275 270 261 253 249 247 246 245 243 241 240 239 239 238 237 236 235 233 231
279 279 279 279 279 279 279 280 281 281 281 281 281 281 281 280 279 279 278 279 279 278 278 278 278 278 277 276 273 271 270 267 263 260 259 261 264 266 266 265 264 265 266 267 268 268 268 268 268 268 268 268 268 268 269 270 271 273 274 275 274 273 272 271 271 273 273 274 272 266 257 251 247 245 244 242 241 240 239 238 238 237 236 235 233 231
279 279 279 279 280 281 280 281 281 281 281 282 282 283 284 285 285 285 283 282 281 282 282 281 279 278 279 278 276 274 273 270 264 259 257 259 262 264 264 263 261 262 264 266 266 266 266 266 267 267 267 267 267 268 268 269 270 271 273 274 275 274 273 271 270 269 269 270 270 268 262 254 248 244 242 240 239 239 238 237 237 236 236 234 233 231
281 280 281 281 282 283 283 283 283 283 283 283 283 284 285 287 288 287 285 284 284 285 284 282 279 280 280 279 277 276 276 273 268 261 258 258 261 263 263 263 261 261 262 263 263 263 262 263 264 265 265 266 267 267 268 269 269 270 272 273 274 275 274 272 270 268 266 266 267 267 264 259 251 245 240 238 238 237 237 237 237 236 234 233 231 228
283 283 283 284 284 284 284 284 284 284 284 284 284 284 285 286 286 284 282 283 284 283 281 278 278 280 281 279 279 279 278 275 271 266 262 261 261 263 264 265 263 262 262 263 263 261 260 260 261 262 263 264 265 266 267 268 269 270 271 272 273 273 273 272 269 267 265 264 263 263 263 261 256 251 245 241 238 237 236 236 235 234 232 229 225 223
287 287 286 286 285 285 284 284 284 284 283 283 283 283 283 281 278 277 278 281 281 280 278 277 277 278 280 281 281 280 278 274 271 268 264 262 261 263 265 266 265 263 262 263 263 261 259 257 257 259 260 262 263 264 265 266 267 269 270 270 270 270 270 270 268 266 264 262 261 260 260 259 258 255 252 247 242 237 235 234 233 231 228 224 220 218
293 292 290 289 288 287 286 285 285 284 284 283 283 282 280 277 274 274 276 278 277 276 276 276 276 276 278 280 281 279 275 273 271 268 264 261 260 262 264 264 263 262 261 263 264 262 258 256 255 256 257 258 259 261 262 264 266 268 269 269 269 269 268 268 267 266 264 261 259 258 257 257 256 255 253 250 244 239 234 232 229 225 222 218 216 214
297 296 294 293 291 290 289 287 287 286 285 285 284 282 279 276 273 272 273 273 272 271 272 274 274 275 276 277 276 274 272 275 274 271 267 263 262 263 264 264 263 261 260 260 262 269 263 258 258 258 256 256 257 259 260 263 265 268 270 271 272 271 270 268 267 265 263 261 259 257 255 254 253 253 251 249 245 239 234 229 225 221 217 214 212 211
298 297 296 295 294 293 291 290 289 287 287 286 285 283 280 276 273 271 270 269 269 269 271 272 274 274 274 273 272 273 276 278 278 276 273 269 267 266 264 264 264 263 261 259 259 264 273 274 267 265 262 260 260 260 261 263 266 269 272 274 275 275 274 272 269 266 262 259 257 255 253 251 250 250 249 248 244 239 233 227 223 218 214 211 209 209
298 297 296 296 295 294 292 291 290 289 288 287 285 284 282 279 276 272 269 268 268 269 270 272 273 274 274 273 272 272 274 275 276 276 274 272 270 268 265 264 263 263 262 260 259 260 263 267 270 270 268 265 264 263 264 265 267 269 271 273 274 275 274 274 272 269 264 259 255 252 249 248 247 248 247 246 243 237 231 225 221 217 212 209 207 206
299 298 297 297 296 295 294 292 291 290 289 288 286 284 283 282 279 276 273 270 269 268 268 270 272 274 275 275 274 274 274 274 275 275 273 271 269 268 266 264 262 262 261 259 258 257 258 260 263 265 266 265 264 263 263 264 265 267 268 269 269 270 271 271 270 269 266 261 254 248 246 245 247 247 247 244 241 235 228 223 219 216 212 208 204 202
300 299 298 298 298 297 296 295 294 292 291 290 288 286 285 283 281 279 277 274 272 269 267 267 269 271 273 274 276 276 276 277 277 277 276 274 272 270 269 266 263 262 260 258 256 255 255 256 256 257 260 262 261 260 260 261 263 264 265 265 265 266 266 266 266 265 263 259 253 246 243 243 245 246 245 243 239 233 226 221 218 215 212 208 204 200
300 299 299 300 299 299 298 297 296 294 293 292 290 288 287 285 283 282 280 278 276 273 269 268 268 269 269 270 272 274 276 277 278 278 277 276 274 273 272 269 267 265 263 261 259 257 256 255 254 254 254 255 258 259 259 259 260 261 262 263 265 266 267 267 266 264 260 256 251 245 241 241 242 242 242 242 239 233 225 220 216 214 211 208 204 201
301 300 300 301 300 300 299 298 297 296 295 293 293 291 289 286 285 284 282 279 277 276 275 273 271 270 268 267 268 269 271 273 274 274 273 272 271 271 270 270 269 268 266 265 265 264 262 261 257 254 250 247 250 256 258 259 259 260 261 262 265 269 273 275 275 270 263 256 252 247 240 240 241 242 243 243 239 231 224 218 215 213 211 208 205 202
302 301 301 301 301 300 300 299 298 297 295 294 293 292 291 289 287 285 282 280 277 276 276 274 273 272 271 268 267 266 267 268 269 268 268 267 266 266 267 268 268 267 265 265 267 269 269 268 263 258 252 250 250 253 255 257 258 259 260 262 264 268 272 275 278 277 271 263 254 246 241 241 243 244 243 239 231 223 218 213 211 210 209 207 206 205
303 302 301 301 301 300 299 298 298 297 296 295 294 292 291 290 287 285 282 280 278 276 274 273 271 271 271 270 268 267 266 265 265 264 264 263 262 261 263 264 265 265 263 263 264 266 268 268 267 265 262 258 254 254 254 254 255 257 260 263 265 267 268 271 274 275 273 265 255 245 240 241 244 244 240 230 219 212 207 206 205 204 204 203 205 206
303 302 301 301 300 299 297 297 297 296 296 295 294 293 292 290 288 286 284 282 280 278 275 273 272 271 270 269 268 267 266 265 264 263 261 260 258 258 258 259 261 262 262 261 261 261 262 264 267 269 269 269 264 259 257 254 253 255 258 262 264 266 267 269 272 275 274 266 253 242 237 239 243 244 239 225 210 201 198 198 198 199 199 199 200 201
303 302 300 301 301 300 299 296 296 296 295 295 294 292 292 291 290 290 289 286 283 281 281 278 276 275 272 270 268 267 265 265 264 262 259 258 256 255 253 254 256 258 259 259 258 257 257 259 262 266 269 271 271 268 262 257 255 254 256 258 261 265 268 271 274 276 277 269 256 242 234 236 242 245 241 225 206 195 193 191 191 192 194 194 194 192
301 300 300 301 302 301 299 297 297 297 295 294 292 291 291 291 292 293 293 291 289 288 287 286 284 282 280 278 275 272 267 265 263 261 258 257 255 253 251 250 251 252 254 254 255 254 254 254 256 259 263 267 271 273 269 263 259 256 254 255 260 265 270 271 271 273 273 268 257 242 232 233 240 245 242 224 203 190 187 186 186 186 187 187 187 186
299 299 299 300 300 300 299 298 298 298 298 296 294 294 293 292 291 292 293 292 291 291 290 289 287 285 284 283 281 278 274 269 264 259 257 256 254 251 249 248 247 248 248 249 250 252 252 252 252 253 256 259 264 269 271 269 264 259 255 254 256 260 265 268 269 271 270 265 254 240 230 230 238 243 241 224 202 188 183 184 183 183 183 183 182 183
299 298 298 299 300 300 300 300 301 300 299 297 296 296 296 294 293 291 291 291 291 291 291 290 289 288 285 284 284 283 279 274 268 262 258 256 253 250 247 246 245 244 243 244 245 247 249 249 250 250 251 254 257 260 264 266 265 262 258 254 253 252 255 262 267 271 273 270 260 242 227 228 236 243 242 226 204 187 181 180 181 182 183 183 182 182
301 301 301 302 303 303 302 302 302 301 300 298 298 298 297 296 294 293 292 292 293 293 293 293 292 290 288 287 287 286 284 281 275 268 263 257 253 249 245 243 242 241 240 240 241 242 243 245 247 249 250 250 251 253 255 258 260 261 259 256 253 253 255 259 264 269 273 275 267 248 229 227 235 241 239 223 201 185 180 179 180 181 183 183 184 184
304 304 303 304 304 304 303 303 303 302 301 301 299 299 299 298 296 295 295 295 295 295 295 294 292 290 289 289 289 289 287 285 282 278 272 264 257 250 245 241 239 238 237 237 237 238 239 242 244 246 248 248 249 250 250 251 254 256 257 255 254 254 256 258 261 265 269 272 269 256 238 232 234 237 234 220 199 182 178 179 181 182 184 185 186 186
305 304 304 304 304 304 304 305 305 305 304 302 301 301 301 300 299 298 297 297 296 296 296 294 291 288 286 287 287 288 287 286 285 282 279 273 265 257 250 244 239 236 236 235 235 236 237 238 239 240 242 244 247 248 248 248 249 251 253 253 253 254 255 257 259 262 266 270 269 260 245 237 234 233 230 215 194 178 175 178 181 184 186 187 187 187
305 305 305 305 304 304 305 306 306 306 305 304 303 302 302 301 301 300 299 298 297 296 295 294 292 289 287 286 286 286 285 285 285 283 281 277 270 262 254 246 240 236 234 233 233 233 235 235 235 235 236 238 241 245 246 246 246 247 249 251 252 252 254 256 258 261 264 267 267 262 252 242 235 230 222 204 184 170 170 174 179 184 187 187 187 187
304 304 305 305 304 305 305 306 307 306 306 305 305 304 303 302 301 300 298 297 297 295 294 293 291 290 289 288 287 286 285 284 283 282 280 277 272 266 257 248 240 234 229 228 228 230 233 234 234 233 233 234 237 241 244 244 244 245 247 249 250 251 252 255 257 259 261 264 264 261 255 247 237 227 216 195 175 165 165 169 176 183 186 187 187 187
306 306 306 305 306 306 306 306 306 306 306 306 306 305 305 304 302 300 298 297 296 295 294 292 291 290 288 288 287 286 285 283 282 281 279 276 272 266 258 249 243 237 230 225 223 224 226 230 232 232 232 232 233 235 238 241 243 244 245 246 247 248 250 252 255 256 258 259 260 257 251 243 236 226 211 191 172 163 163 166 172 178 183 185 186 187
309 308 308 307 307 307 307 307 307 307 307 307 306 305 305 304 304 303 301 299 298 297 295 293 291 289 288 287 287 285 284 283 282 280 278 275 270 264 256 248 242 238 234 228 221 219 219 221 227 231 232 231 230 230 232 235 238 240 242 243 244 245 247 250 253 255 256 256 255 251 243 235 229 221 206 186 170 162 162 166 170 176 180 183 184 185